Location: Boiro
(42.6475°N, 8.8834°W)
Time: 01:12:57
(UTC+01:00)

Transit 2A - All Passes

Search period start: 30 November 2021 00:00
Search period end: 10 December 2021 00:00
Orbit: 591 x 967 km, 66.7° (Epoch: 29 November)

Date Brightness Start Highest point End Pass type
(mag) Time Alt. Az. Time Alt. Az. Time Alt. Az.
30 Nov - 01:53:14 10° S 01:58:21 42° ESE 02:03:59 10° NE night (unlit)
30 Nov - 03:36:28 10° WSW 03:41:41 36° NW 03:47:20 10° NNE visible
30 Nov - 05:25:25 10° NW 05:26:56 11° NNW 05:28:28 10° N visible
30 Nov - 08:57:03 10° N 09:00:04 13° NNE 09:03:03 10° ENE daylight
30 Nov - 10:38:52 10° NNW 10:45:01 46° NE 10:50:56 10° SE daylight
30 Nov - 12:22:28 10° NW 12:28:09 35° WSW 12:33:35 10° S daylight
01 Dec - 01:19:38 10° SSE 01:24:19 29° ESE 01:29:25 10° NE night (unlit)
01 Dec - 03:01:50 10° SW 03:07:16 48° NW 03:13:14 10° NNE night (unlit)
01 Dec - 04:49:20 10° WNW 04:52:10 13° NNW 04:55:06 10° N visible
01 Dec - 08:23:38 10° N 08:25:18 11° NNE 08:26:58 10° NE daylight
01 Dec - 10:04:46 10° NNW 10:10:35 35° NE 10:16:14 10° ESE daylight
01 Dec - 11:47:58 10° NW 11:54:05 49° WSW 11:59:54 10° S daylight
02 Dec - 00:46:25 10° SSE 00:50:23 20° ESE 00:54:35 10° ENE night (unlit)
02 Dec - 02:27:22 10° SW 02:32:56 66° NW 02:39:04 10° NNE night (unlit)
02 Dec - 04:13:47 10° WNW 04:17:29 17° NNW 04:21:20 10° N visible
02 Dec - 09:30:43 10° NNW 09:36:06 27° NE 09:41:21 10° E daylight
02 Dec - 11:13:35 10° NW 11:19:57 69° WSW 11:25:59 10° SSE daylight
02 Dec - 13:00:53 10° W 13:01:59 10° W 13:03:04 10° WSW daylight
03 Dec - 00:13:48 10° SE 00:16:28 14° E 00:19:16 10° ENE night (unlit)
03 Dec - 01:53:05 10° SSW 01:58:41 90° ESE 02:04:51 10° NNE night (unlit)
03 Dec - 03:38:30 10° W 03:42:51 21° NW 03:47:27 10° N visible
03 Dec - 08:56:44 10° N 09:01:32 22° NE 09:06:16 10° E daylight
03 Dec - 10:39:18 10° NNW 10:45:45 88° NE 10:51:51 10° SSE daylight
03 Dec - 12:24:28 10° WNW 12:28:07 16° WSW 12:31:40 10° SW daylight
04 Dec - 01:19:00 10° SSW 01:24:29 65° ESE 01:30:33 10° NE night (unlit)
04 Dec - 03:03:26 10° W 03:08:17 27° NW 03:13:28 10° NNE night (unlit)
04 Dec - 08:22:50 10° N 08:26:56 17° NE 08:30:58 10° ENE daylight
04 Dec - 10:05:05 10° NNW 10:11:29 65° NE 10:17:33 10° SE daylight
04 Dec - 11:49:22 10° NW 11:54:11 23° WSW 11:58:48 10° SSW daylight
05 Dec - 00:45:07 10° S 00:50:23 45° ESE 00:56:09 10° NE night (unlit)
05 Dec - 02:28:35 10° WSW 02:33:48 34° NW 02:39:25 10° NNE night (unlit)
05 Dec - 04:17:50 10° NW 04:19:06 11° NNW 04:20:24 10° NNW visible
05 Dec - 07:49:02 10° N 07:52:14 14° NNE 07:55:24 10° ENE visible
05 Dec - 09:30:56 10° NNW 09:37:08 49° NE 09:43:03 10° SE daylight
05 Dec - 11:14:38 10° NW 11:20:12 33° WSW 11:25:29 10° S daylight
06 Dec - 00:11:29 10° S 00:16:21 32° ESE 00:21:36 10° NE night (unlit)
06 Dec - 01:53:54 10° SW 01:59:22 46° NW 02:05:20 10° NNE night (unlit)
06 Dec - 03:41:38 10° NW 03:44:20 13° NNW 03:47:07 10° N visible
06 Dec - 07:15:30 10° N 07:17:29 11° NNE 07:19:27 10° NE visible
06 Dec - 08:56:50 10° NNW 09:02:43 37° NE 09:08:23 10° ESE daylight
06 Dec - 10:40:06 10° NW 10:46:08 46° WSW 10:51:51 10° S daylight
06 Dec - 23:38:10 10° SSE 23:42:23 22° ESE 23:46:51 10° ENE night (unlit)
07 Dec - 01:19:24 10° SW 01:25:01 63° NW 01:31:11 10° NNE night (unlit)
07 Dec - 03:06:01 10° WNW 03:09:38 16° NNW 03:13:24 10° N night (unlit)
07 Dec - 08:22:47 10° NNW 08:28:15 29° NE 08:33:31 10° ESE visible
07 Dec - 10:05:43 10° NW 10:12:02 64° WSW 10:17:58 10° SSE daylight
07 Dec - 23:05:23 10° SE 23:08:28 15° E 23:11:41 10° ENE night (unlit)
08 Dec - 00:45:05 10° SSW 00:50:44 86° WNW 00:56:58 10° NNE night (unlit)
08 Dec - 02:30:41 10° W 02:35:00 20° NW 02:39:31 10° N night (unlit)
08 Dec - 07:48:47 10° N 07:53:42 23° NE 07:58:29 10° E visible
08 Dec - 09:31:25 10° NNW 09:37:50 88° WSW 09:43:53 10° SSE daylight
08 Dec - 11:16:50 10° WNW 11:20:07 15° W 11:23:19 10° SW daylight
09 Dec - 00:10:58 10° SSW 00:16:32 69° ESE 00:22:41 10° NE night (unlit)
09 Dec - 01:55:36 10° W 02:00:24 26° NW 02:05:32 10° NNE night (unlit)
09 Dec - 07:14:51 10° N 07:19:05 18° NE 07:23:14 10° ENE visible
09 Dec - 08:57:10 10° NNW 09:03:35 69° ENE 09:09:37 10° SE daylight
09 Dec - 10:41:36 10° WNW 10:46:12 22° WSW 10:50:37 10° SSW daylight
09 Dec - 23:37:02 10° S 23:42:25 49° ESE 23:48:18 10° NE night (unlit)
